This is the latest recevied weather packets stored in our database for station/object BAGASKAR. If no packets are shown the sender has not sent any weather packets the latest 10 day(s).
| Time | Temp. | Humidity | Pressure | Rain* | Wind** | Luminosity | Snow |
|---|---|---|---|---|---|---|---|
| 1778184449 | 8.33° C | 43% | 1018.4 hPa | - | - | - | - |
| 1778183248 | 7.78° C | 49% | 1018 hPa | - | - | - | - |
| 1778182048 | 7.22° C | 63% | 1017.6 hPa | - | - | - | - |
| 1778180848 | 6.67° C | 78% | 1017.3 hPa | - | - | - | - |
| 1778179648 | 7.22° C | 89% | 1017.1 hPa | - | - | - | - |
| 1778178447 | 7.22° C | 70% | 1016.9 hPa | - | - | - | - |
| 1778177247 | 7.22° C | 68% | 1016.9 hPa | - | - | - | - |
| 1778176047 | 7.78° C | 62% | 1016.9 hPa | - | - | - | - |
| 1778174847 | 8.33° C | 56% | 1016.8 hPa | - | - | - | - |
| 1778173647 | 8.89° C | 58% | 1016.8 hPa | - | - | - | - |
| 1778172448 | 9.44° C | 56% | 1016.8 hPa | - | - | - | - |
| 1778171247 | 10.56° C | 50% | 1016.7 hPa | - | - | - | - |
| 1778170047 | 11.67° C | 41% | 1016.6 hPa | - | - | - | - |
| 1778168847 | 12.22° C | 44% | 1016.5 hPa | - | - | - | - |
| 1778167646 | 11.67° C | 40% | 1016.5 hPa | - | - | - | - |
| 1778166448 | 11.11° C | 44% | 1016.5 hPa | - | - | - | - |
| 1778165248 | 11.11° C | 48% | 1016.4 hPa | - | - | - | - |
| 1778164048 | 11.67° C | 51% | 1016.3 hPa | - | - | - | - |
| 1778162847 | 11.67° C | 52% | 1016.1 hPa | - | - | - | - |
| 1778161647 | 11.67° C | 49% | 1016.1 hPa | - | - | - | - |
| 1778160446 | 11.11° C | 46% | 1016.1 hPa | - | - | - | - |
| 1778159247 | 11.11° C | 48% | 1016.2 hPa | - | - | - | - |
| 1778158046 | 11.11° C | 49% | 1016.1 hPa | - | - | - | - |
| 1778156846 | 9.44° C | 54% | 1016.1 hPa | - | - | - | - |
| 1778155647 | 10° C | 65% | 1016.1 hPa | - | - | - | - |
* Rain since midnight (hover to see other rain measurements)
** Current wind speed in m/s (hover to see current wind gust speed)